Location: Milton Keynes
(52.0316°N, 0.7531°W)
Time: 16:42:45
(UTC+00:00)

GENESIS II - Visible Passes

Search period start: 03 December 2022 00:00
Search period end: 13 December 2022 00:00
Orbit: 461 x 543 km, 64.5° (Epoch: 02 December)

Date Brightness Start Highest point End Pass type
(mag) Time Alt. Az. Time Alt. Az. Time Alt. Az.
03 Dec 5.9 17:41:39 10° W 17:45:01 26° NNW 17:47:20 16° NNE visible
03 Dec 7.1 19:21:24 10° NW 19:22:02 12° NNW 19:22:02 12° NNW visible
04 Dec 5.9 17:21:29 10° W 17:24:54 26° NNW 17:27:50 13° NNE visible
04 Dec 6.9 19:01:14 10° NW 19:02:31 14° NNW 19:02:31 14° NNW visible
05 Dec 5.8 17:01:18 10° W 17:04:46 27° NNW 17:08:17 10° NNE visible
05 Dec 6.7 18:41:03 10° NW 18:43:00 15° NNW 18:43:00 15° NNW visible
06 Dec 5.7 16:41:07 10° W 16:44:37 28° NNW 16:48:11 10° NNE visible
06 Dec 6.5 18:20:52 10° NW 18:23:14 15° N 18:23:27 15° N visible
07 Dec 6.4 18:00:40 10° NW 18:03:03 15° N 18:03:53 14° N visible
08 Dec 6.4 17:40:27 10° NW 17:42:52 15° N 17:44:18 13° NNE visible
09 Dec 6.4 17:20:13 10° NW 17:22:41 15° N 17:24:43 11° NNE visible
09 Dec 7.0 18:58:51 10° NNW 18:59:25 12° NNW 18:59:25 12° NNW visible
10 Dec 6.4 17:00:00 10° NW 17:02:28 15° N 17:04:57 10° NNE visible
10 Dec 6.7 18:38:41 10° NNW 18:39:50 14° NNW 18:39:50 14° NNW visible
11 Dec 6.4 16:39:44 10° NW 16:42:14 16° N 16:44:46 10° NNE visible
11 Dec 6.5 18:18:31 10° NNW 18:20:15 15° N 18:20:15 15° N visible
12 Dec 6.3 17:58:19 10° NNW 18:00:40 16° N 18:00:40 16° N visible
